Location: Goettingen
(51.5300°N, 9.9433°E)
Time: 08:58:02
(UTC+02:00)

ISS - Pass Details

Date: 15 March 2018
Orbit: 403 x 408 km, 51.6° (Epoch: 24 June)

Event Time Altitude Azimuth Distance (km) Brightness Sun altitude
Exits shadow 03:05:37 - 86° (E) 1,642 -0.2 -30.8°
Enters shadow 04:04:31 -62° 280° (W) 11,758 3.6 -23.4°
Maximum altitude 04:38:29 67° 196° (SSW) 450 -3.9 -18.6°
